#datetime,building,power
2022-05-07T00:00:00,mcc,54.22
2022-05-07T00:01:00,mcc,53.86
2022-05-07T00:02:00,mcc,49.54
2022-05-07T00:03:00,mcc,50.65
2022-05-07T00:04:00,mcc,50.53
2022-05-07T00:05:00,mcc,51.47
2022-05-07T00:06:00,mcc,53.39
2022-05-07T00:07:00,mcc,55.15
2022-05-07T00:08:00,mcc,53.95
2022-05-07T00:09:00,mcc,55.28
2022-05-07T00:10:00,mcc,54.83
2022-05-07T00:11:00,mcc,52.98
2022-05-07T00:12:00,mcc,51.03
2022-05-07T00:13:00,mcc,51.09
2022-05-07T00:14:00,mcc,66.71
2022-05-07T00:15:00,mcc,53.86
2022-05-07T00:16:00,mcc,62.89
2022-05-07T00:17:00,mcc,54.79
2022-05-07T00:18:00,mcc,53.50
2022-05-07T00:19:00,mcc,49.85
2022-05-07T00:20:00,mcc,48.48
2022-05-07T00:21:00,mcc,52.26
2022-05-07T00:22:00,mcc,49.32
2022-05-07T00:23:00,mcc,49.22
2022-05-07T00:24:00,mcc,50.80
2022-05-07T00:25:00,mcc,49.50
2022-05-07T00:26:00,mcc,49.90
2022-05-07T00:27:00,mcc,49.34
2022-05-07T00:28:00,mcc,48.92
2022-05-07T00:29:00,mcc,48.08
2022-05-07T00:30:00,mcc,46.45
2022-05-07T00:31:00,mcc,45.55
2022-05-07T00:32:00,mcc,49.40
2022-05-07T00:33:00,mcc,48.14
2022-05-07T00:34:00,mcc,55.54
2022-05-07T00:35:00,mcc,49.95
2022-05-07T00:36:00,mcc,46.64
2022-05-07T00:37:00,mcc,44.34
2022-05-07T00:38:00,mcc,51.82
2022-05-07T00:39:00,mcc,45.01
2022-05-07T00:40:00,mcc,44.41
2022-05-07T00:41:00,mcc,44.02
2022-05-07T00:42:00,mcc,42.93
2022-05-07T00:43:00,mcc,42.51
2022-05-07T00:44:00,mcc,43.12
2022-05-07T00:45:00,mcc,41.49
2022-05-07T00:46:00,mcc,43.99
2022-05-07T00:47:00,mcc,47.19
2022-05-07T00:48:00,mcc,45.40
2022-05-07T00:49:00,mcc,42.67
2022-05-07T00:50:00,mcc,43.56
2022-05-07T00:51:00,mcc,43.74
2022-05-07T00:52:00,mcc,45.25
2022-05-07T00:53:00,mcc,52.01
2022-05-07T00:54:00,mcc,43.75
2022-05-07T00:55:00,mcc,44.50
2022-05-07T00:56:00,mcc,43.36
2022-05-07T00:57:00,mcc,43.22
2022-05-07T00:58:00,mcc,47.52
2022-05-07T00:59:00,mcc,45.48
2022-05-07T01:00:00,mcc,45.34
2022-05-07T01:01:00,mcc,44.91
2022-05-07T01:02:00,mcc,42.88
2022-05-07T01:03:00,mcc,41.45
2022-05-07T01:04:00,mcc,43.07
2022-05-07T01:05:00,mcc,42.93
2022-05-07T01:06:00,mcc,42.46
2022-05-07T01:07:00,mcc,41.36
2022-05-07T01:08:00,mcc,41.91
2022-05-07T01:09:00,mcc,45.12
2022-05-07T01:10:00,mcc,42.74
2022-05-07T01:11:00,mcc,47.13
2022-05-07T01:12:00,mcc,48.17
2022-05-07T01:13:00,mcc,43.65
2022-05-07T01:14:00,mcc,42.33
2022-05-07T01:15:00,mcc,41.61
2022-05-07T01:16:00,mcc,41.77
2022-05-07T01:17:00,mcc,42.33
2022-05-07T01:18:00,mcc,44.40
2022-05-07T01:19:00,mcc,42.06
2022-05-07T01:20:00,mcc,43.98
2022-05-07T01:21:00,mcc,46.74
2022-05-07T01:22:00,mcc,45.57
2022-05-07T01:23:00,mcc,44.41
2022-05-07T01:24:00,mcc,43.46
2022-05-07T01:25:00,mcc,43.21
2022-05-07T01:26:00,mcc,50.96
2022-05-07T01:27:00,mcc,42.54
2022-05-07T01:28:00,mcc,42.37
2022-05-07T01:29:00,mcc,43.43
2022-05-07T01:30:00,mcc,49.24
2022-05-07T01:31:00,mcc,51.50
2022-05-07T01:32:00,mcc,53.51
2022-05-07T01:33:00,mcc,52.80
2022-05-07T01:34:00,mcc,42.84
2022-05-07T01:35:00,mcc,45.89
2022-05-07T01:36:00,mcc,43.70
2022-05-07T01:37:00,mcc,44.92
2022-05-07T01:38:00,mcc,44.23
2022-05-07T01:39:00,mcc,42.35
2022-05-07T01:40:00,mcc,52.64
2022-05-07T01:41:00,mcc,57.62
2022-05-07T01:42:00,mcc,56.86
2022-05-07T01:43:00,mcc,59.11
2022-05-07T01:44:00,mcc,49.91
2022-05-07T01:45:00,mcc,45.91
2022-05-07T01:46:00,mcc,46.60
2022-05-07T01:47:00,mcc,44.40
2022-05-07T01:48:00,mcc,52.11
2022-05-07T01:49:00,mcc,47.02
2022-05-07T01:50:00,mcc,43.54
2022-05-07T01:51:00,mcc,44.27
2022-05-07T01:52:00,mcc,46.62
2022-05-07T01:53:00,mcc,46.49
2022-05-07T01:54:00,mcc,45.52
2022-05-07T01:55:00,mcc,45.70
2022-05-07T01:56:00,mcc,44.63
2022-05-07T01:57:00,mcc,45.49
2022-05-07T01:58:00,mcc,42.97
2022-05-07T01:59:00,mcc,43.50
2022-05-07T02:00:00,mcc,44.75
2022-05-07T02:01:00,mcc,43.54
2022-05-07T02:02:00,mcc,45.36
2022-05-07T02:03:00,mcc,49.27
2022-05-07T02:04:00,mcc,48.41
2022-05-07T02:05:00,mcc,46.93
2022-05-07T02:06:00,mcc,46.36
2022-05-07T02:07:00,mcc,54.79
2022-05-07T02:08:00,mcc,44.51
2022-05-07T02:09:00,mcc,48.04
2022-05-07T02:10:00,mcc,43.88
2022-05-07T02:11:00,mcc,42.25
2022-05-07T02:12:00,mcc,43.96
2022-05-07T02:13:00,mcc,43.83
2022-05-07T02:14:00,mcc,44.98
2022-05-07T02:15:00,mcc,44.03
2022-05-07T02:16:00,mcc,41.37
2022-05-07T02:17:00,mcc,41.08
2022-05-07T02:18:00,mcc,40.35
2022-05-07T02:19:00,mcc,40.84
2022-05-07T02:20:00,mcc,40.62
2022-05-07T02:21:00,mcc,40.18
2022-05-07T02:22:00,mcc,40.26
2022-05-07T02:23:00,mcc,43.38
2022-05-07T02:24:00,mcc,41.93
2022-05-07T02:25:00,mcc,50.40
2022-05-07T02:26:00,mcc,43.39
2022-05-07T02:27:00,mcc,40.53
2022-05-07T02:28:00,mcc,41.44
2022-05-07T02:29:00,mcc,49.84
2022-05-07T02:30:00,mcc,48.94
2022-05-07T02:31:00,mcc,38.76
2022-05-07T02:32:00,mcc,41.23
2022-05-07T02:33:00,mcc,39.31
2022-05-07T02:34:00,mcc,38.13
2022-05-07T02:35:00,mcc,39.51
2022-05-07T02:36:00,mcc,38.73
2022-05-07T02:37:00,mcc,41.19
2022-05-07T02:38:00,mcc,36.76
2022-05-07T02:39:00,mcc,36.64
2022-05-07T02:40:00,mcc,38.91
2022-05-07T02:41:00,mcc,39.61
2022-05-07T02:42:00,mcc,43.25
2022-05-07T02:43:00,mcc,42.58
2022-05-07T02:44:00,mcc,40.24
2022-05-07T02:45:00,mcc,41.01
2022-05-07T02:46:00,mcc,42.78
2022-05-07T02:47:00,mcc,42.23
2022-05-07T02:48:00,mcc,41.28
2022-05-07T02:49:00,mcc,42.17
2022-05-07T02:50:00,mcc,39.12
2022-05-07T02:51:00,mcc,40.62
2022-05-07T02:52:00,mcc,37.70
2022-05-07T02:53:00,mcc,37.20
2022-05-07T02:54:00,mcc,39.29
2022-05-07T02:55:00,mcc,37.13
2022-05-07T02:56:00,mcc,37.65
2022-05-07T02:57:00,mcc,38.62
2022-05-07T02:58:00,mcc,36.26
2022-05-07T02:59:00,mcc,36.69
2022-05-07T03:00:00,mcc,38.78
2022-05-07T03:01:00,mcc,39.66
2022-05-07T03:02:00,mcc,46.44
2022-05-07T03:03:00,mcc,40.84
2022-05-07T03:04:00,mcc,38.51
2022-05-07T03:05:00,mcc,36.51
2022-05-07T03:06:00,mcc,35.69
2022-05-07T03:07:00,mcc,39.80
2022-05-07T03:08:00,mcc,38.12
2022-05-07T03:09:00,mcc,38.00
2022-05-07T03:10:00,mcc,38.69
2022-05-07T03:11:00,mcc,39.65
2022-05-07T03:12:00,mcc,36.33
2022-05-07T03:13:00,mcc,37.02
2022-05-07T03:14:00,mcc,38.00
2022-05-07T03:15:00,mcc,38.62
2022-05-07T03:16:00,mcc,38.13
2022-05-07T03:17:00,mcc,39.96
2022-05-07T03:18:00,mcc,39.96
2022-05-07T03:19:00,mcc,38.94
2022-05-07T03:20:00,mcc,38.66
2022-05-07T03:21:00,mcc,45.14
2022-05-07T03:22:00,mcc,38.89
2022-05-07T03:23:00,mcc,40.00
2022-05-07T03:24:00,mcc,42.17
2022-05-07T03:25:00,mcc,44.71
2022-05-07T03:26:00,mcc,42.66
2022-05-07T03:27:00,mcc,41.68
2022-05-07T03:28:00,mcc,42.58
2022-05-07T03:29:00,mcc,42.08
2022-05-07T03:30:00,mcc,41.04
2022-05-07T03:31:00,mcc,40.35
2022-05-07T03:32:00,mcc,40.73
2022-05-07T03:33:00,mcc,40.01
2022-05-07T03:34:00,mcc,41.12
2022-05-07T03:35:00,mcc,38.99
2022-05-07T03:36:00,mcc,39.53
2022-05-07T03:37:00,mcc,46.71
2022-05-07T03:38:00,mcc,44.29
2022-05-07T03:39:00,mcc,44.46
2022-05-07T03:40:00,mcc,45.68
2022-05-07T03:41:00,mcc,52.56
2022-05-07T03:42:00,mcc,40.79
2022-05-07T03:43:00,mcc,36.90
2022-05-07T03:44:00,mcc,39.47
2022-05-07T03:45:00,mcc,43.27
2022-05-07T03:46:00,mcc,41.13
2022-05-07T03:47:00,mcc,40.99
2022-05-07T03:48:00,mcc,42.65
2022-05-07T03:49:00,mcc,41.53
2022-05-07T03:50:00,mcc,42.74
2022-05-07T03:51:00,mcc,42.98
2022-05-07T03:52:00,mcc,41.96
2022-05-07T03:53:00,mcc,45.00
2022-05-07T03:54:00,mcc,44.43
2022-05-07T03:55:00,mcc,41.10
2022-05-07T03:56:00,mcc,42.22
2022-05-07T03:57:00,mcc,38.56
2022-05-07T03:58:00,mcc,38.39
2022-05-07T03:59:00,mcc,49.31
2022-05-07T04:00:00,mcc,38.97
2022-05-07T04:01:00,mcc,39.96
2022-05-07T04:02:00,mcc,38.41
2022-05-07T04:03:00,mcc,39.64
2022-05-07T04:04:00,mcc,38.57
2022-05-07T04:05:00,mcc,38.14
2022-05-07T04:06:00,mcc,38.05
2022-05-07T04:07:00,mcc,40.96
2022-05-07T04:08:00,mcc,38.15
2022-05-07T04:09:00,mcc,39.01
2022-05-07T04:10:00,mcc,40.38
2022-05-07T04:11:00,mcc,39.00
2022-05-07T04:12:00,mcc,39.30
2022-05-07T04:13:00,mcc,39.41
2022-05-07T04:14:00,mcc,39.24
2022-05-07T04:15:00,mcc,40.98
2022-05-07T04:16:00,mcc,40.50
2022-05-07T04:17:00,mcc,39.95
2022-05-07T04:18:00,mcc,42.84
2022-05-07T04:19:00,mcc,40.28
2022-05-07T04:20:00,mcc,40.34
2022-05-07T04:21:00,mcc,41.76
2022-05-07T04:22:00,mcc,37.69
2022-05-07T04:23:00,mcc,36.72
2022-05-07T04:24:00,mcc,39.21
2022-05-07T04:25:00,mcc,39.34
2022-05-07T04:26:00,mcc,39.23
2022-05-07T04:27:00,mcc,37.82
2022-05-07T04:28:00,mcc,37.63
2022-05-07T04:29:00,mcc,36.15
2022-05-07T04:30:00,mcc,38.21
2022-05-07T04:31:00,mcc,36.92
2022-05-07T04:32:00,mcc,39.42
2022-05-07T04:33:00,mcc,38.95
2022-05-07T04:34:00,mcc,39.05
2022-05-07T04:35:00,mcc,39.67
2022-05-07T04:36:00,mcc,48.01
2022-05-07T04:37:00,mcc,35.91
2022-05-07T04:38:00,mcc,39.14
2022-05-07T04:39:00,mcc,36.52
2022-05-07T04:40:00,mcc,35.60
2022-05-07T04:41:00,mcc,36.95
2022-05-07T04:42:00,mcc,38.18
2022-05-07T04:43:00,mcc,38.20
2022-05-07T04:44:00,mcc,39.95
2022-05-07T04:45:00,mcc,38.29
2022-05-07T04:46:00,mcc,40.49
2022-05-07T04:47:00,mcc,39.87
2022-05-07T04:48:00,mcc,39.83
2022-05-07T04:49:00,mcc,42.68
2022-05-07T04:50:00,mcc,38.87
2022-05-07T04:51:00,mcc,39.15
2022-05-07T04:52:00,mcc,41.36
2022-05-07T04:53:00,mcc,43.72
2022-05-07T04:54:00,mcc,40.51
2022-05-07T04:55:00,mcc,47.15
2022-05-07T04:56:00,mcc,39.74
2022-05-07T04:57:00,mcc,39.78
2022-05-07T04:58:00,mcc,38.70
2022-05-07T04:59:00,mcc,37.48
2022-05-07T05:00:00,mcc,40.04
2022-05-07T05:01:00,mcc,38.45
2022-05-07T05:02:00,mcc,39.10
2022-05-07T05:03:00,mcc,39.58
2022-05-07T05:04:00,mcc,38.15
2022-05-07T05:05:00,mcc,39.36
2022-05-07T05:06:00,mcc,39.48
2022-05-07T05:07:00,mcc,36.46
2022-05-07T05:08:00,mcc,36.00
2022-05-07T05:09:00,mcc,41.07
2022-05-07T05:10:00,mcc,41.27
2022-05-07T05:11:00,mcc,40.90
2022-05-07T05:12:00,mcc,40.91
2022-05-07T05:13:00,mcc,41.15
2022-05-07T05:14:00,mcc,49.60
2022-05-07T05:15:00,mcc,41.66
2022-05-07T05:16:00,mcc,37.95
2022-05-07T05:17:00,mcc,41.11
2022-05-07T05:18:00,mcc,39.63
2022-05-07T05:19:00,mcc,39.17
2022-05-07T05:20:00,mcc,39.76
2022-05-07T05:21:00,mcc,36.56
2022-05-07T05:22:00,mcc,37.03
2022-05-07T05:23:00,mcc,37.52
2022-05-07T05:24:00,mcc,36.03
2022-05-07T05:25:00,mcc,36.35
2022-05-07T05:26:00,mcc,36.55
2022-05-07T05:27:00,mcc,39.36
2022-05-07T05:28:00,mcc,39.77
2022-05-07T05:29:00,mcc,38.34
2022-05-07T05:30:00,mcc,36.75
2022-05-07T05:31:00,mcc,38.64
2022-05-07T05:32:00,mcc,35.64
2022-05-07T05:33:00,mcc,36.70
2022-05-07T05:34:00,mcc,40.35
2022-05-07T05:35:00,mcc,39.70
2022-05-07T05:36:00,mcc,42.20
2022-05-07T05:37:00,mcc,42.46
2022-05-07T05:38:00,mcc,41.79
2022-05-07T05:39:00,mcc,39.87
2022-05-07T05:40:00,mcc,39.26
2022-05-07T05:41:00,mcc,37.39
2022-05-07T05:42:00,mcc,36.96
2022-05-07T05:43:00,mcc,36.64
2022-05-07T05:44:00,mcc,36.61
2022-05-07T05:45:00,mcc,37.44
2022-05-07T05:46:00,mcc,35.56
2022-05-07T05:47:00,mcc,47.18
2022-05-07T05:48:00,mcc,50.04
2022-05-07T05:49:00,mcc,46.99
2022-05-07T05:50:00,mcc,39.12
2022-05-07T05:51:00,mcc,40.64
2022-05-07T05:52:00,mcc,39.48
2022-05-07T05:53:00,mcc,36.28
2022-05-07T05:54:00,mcc,38.76
2022-05-07T05:55:00,mcc,43.52
2022-05-07T05:56:00,mcc,37.73
2022-05-07T05:57:00,mcc,42.57
2022-05-07T05:58:00,mcc,39.44
2022-05-07T05:59:00,mcc,39.46
2022-05-07T06:00:00,mcc,37.59
2022-05-07T06:01:00,mcc,38.30
2022-05-07T06:02:00,mcc,39.92
2022-05-07T06:03:00,mcc,42.87
2022-05-07T06:04:00,mcc,41.76
2022-05-07T06:05:00,mcc,44.11
2022-05-07T06:06:00,mcc,42.83
2022-05-07T06:07:00,mcc,42.90
2022-05-07T06:08:00,mcc,43.11
2022-05-07T06:09:00,mcc,38.30
2022-05-07T06:10:00,mcc,38.39
2022-05-07T06:11:00,mcc,36.92
2022-05-07T06:12:00,mcc,38.72
2022-05-07T06:13:00,mcc,47.46
2022-05-07T06:14:00,mcc,40.03
2022-05-07T06:15:00,mcc,38.10
2022-05-07T06:16:00,mcc,40.12
2022-05-07T06:17:00,mcc,36.94
2022-05-07T06:18:00,mcc,38.85
2022-05-07T06:19:00,mcc,40.29
2022-05-07T06:20:00,mcc,39.95
2022-05-07T06:21:00,mcc,40.10
2022-05-07T06:22:00,mcc,42.29
2022-05-07T06:23:00,mcc,39.24
2022-05-07T06:24:00,mcc,38.60
2022-05-07T06:25:00,mcc,40.65
2022-05-07T06:26:00,mcc,37.43
2022-05-07T06:27:00,mcc,38.29
2022-05-07T06:28:00,mcc,43.18
2022-05-07T06:29:00,mcc,40.16
2022-05-07T06:30:00,mcc,40.24
2022-05-07T06:31:00,mcc,38.89
2022-05-07T06:32:00,mcc,39.50
2022-05-07T06:33:00,mcc,39.27
2022-05-07T06:34:00,mcc,40.28
2022-05-07T06:35:00,mcc,38.17
2022-05-07T06:36:00,mcc,51.91
2022-05-07T06:37:00,mcc,39.52
2022-05-07T06:38:00,mcc,40.10
2022-05-07T06:39:00,mcc,39.27
2022-05-07T06:40:00,mcc,35.29
2022-05-07T06:41:00,mcc,34.53
2022-05-07T06:42:00,mcc,36.94
2022-05-07T06:43:00,mcc,36.27
2022-05-07T06:44:00,mcc,37.97
2022-05-07T06:45:00,mcc,38.27
2022-05-07T06:46:00,mcc,37.11
2022-05-07T06:47:00,mcc,35.55
2022-05-07T06:48:00,mcc,36.89
2022-05-07T06:49:00,mcc,38.65
2022-05-07T06:50:00,mcc,40.30
2022-05-07T06:51:00,mcc,38.36
2022-05-07T06:52:00,mcc,38.40
2022-05-07T06:53:00,mcc,40.93
2022-05-07T06:54:00,mcc,48.59
2022-05-07T06:55:00,mcc,39.22
2022-05-07T06:56:00,mcc,40.46
2022-05-07T06:57:00,mcc,39.23
2022-05-07T06:58:00,mcc,38.84
2022-05-07T06:59:00,mcc,36.78
2022-05-07T07:00:00,mcc,36.87
2022-05-07T07:01:00,mcc,34.04
2022-05-07T07:02:00,mcc,34.68
2022-05-07T07:03:00,mcc,35.91
2022-05-07T07:04:00,mcc,36.01
2022-05-07T07:05:00,mcc,35.90
2022-05-07T07:06:00,mcc,34.90
2022-05-07T07:07:00,mcc,38.90
2022-05-07T07:08:00,mcc,36.57
2022-05-07T07:09:00,mcc,35.42
2022-05-07T07:10:00,mcc,36.89
2022-05-07T07:11:00,mcc,34.38
2022-05-07T07:12:00,mcc,34.67
2022-05-07T07:13:00,mcc,35.32
2022-05-07T07:14:00,mcc,36.90
2022-05-07T07:15:00,mcc,37.51
2022-05-07T07:16:00,mcc,37.50
2022-05-07T07:17:00,mcc,37.46
2022-05-07T07:18:00,mcc,38.39
2022-05-07T07:19:00,mcc,38.40
2022-05-07T07:20:00,mcc,39.07
2022-05-07T07:21:00,mcc,41.25
2022-05-07T07:22:00,mcc,39.96
2022-05-07T07:23:00,mcc,41.28
2022-05-07T07:24:00,mcc,41.96
2022-05-07T07:25:00,mcc,37.42
2022-05-07T07:26:00,mcc,36.47
2022-05-07T07:27:00,mcc,37.60
2022-05-07T07:28:00,mcc,35.85
2022-05-07T07:29:00,mcc,36.75
2022-05-07T07:30:00,mcc,35.59
2022-05-07T07:31:00,mcc,44.82
2022-05-07T07:32:00,mcc,38.78
2022-05-07T07:33:00,mcc,40.74
2022-05-07T07:34:00,mcc,37.47
2022-05-07T07:35:00,mcc,37.76
2022-05-07T07:36:00,mcc,36.83
2022-05-07T07:37:00,mcc,39.21
2022-05-07T07:38:00,mcc,37.87
2022-05-07T07:39:00,mcc,37.93
2022-05-07T07:40:00,mcc,38.86
2022-05-07T07:41:00,mcc,41.11
2022-05-07T07:42:00,mcc,35.19
2022-05-07T07:43:00,mcc,35.11
2022-05-07T07:44:00,mcc,36.35
2022-05-07T07:45:00,mcc,34.96
2022-05-07T07:46:00,mcc,37.95
2022-05-07T07:47:00,mcc,38.47
2022-05-07T07:48:00,mcc,37.98
2022-05-07T07:49:00,mcc,39.43
2022-05-07T07:50:00,mcc,47.59
2022-05-07T07:51:00,mcc,38.95
2022-05-07T07:52:00,mcc,39.77
2022-05-07T07:53:00,mcc,37.09
2022-05-07T07:54:00,mcc,36.03
2022-05-07T07:55:00,mcc,39.06
2022-05-07T07:56:00,mcc,37.17
2022-05-07T07:57:00,mcc,37.38
2022-05-07T07:58:00,mcc,39.16
2022-05-07T07:59:00,mcc,37.65
2022-05-07T08:00:00,mcc,37.99
2022-05-07T08:01:00,mcc,42.13
2022-05-07T08:02:00,mcc,39.89
2022-05-07T08:03:00,mcc,37.32
2022-05-07T08:04:00,mcc,39.04
2022-05-07T08:05:00,mcc,38.65
2022-05-07T08:06:00,mcc,38.44
2022-05-07T08:07:00,mcc,41.30
2022-05-07T08:08:00,mcc,34.71
2022-05-07T08:09:00,mcc,34.15
2022-05-07T08:10:00,mcc,33.90
2022-05-07T08:11:00,mcc,36.16
2022-05-07T08:12:00,mcc,42.87
2022-05-07T08:13:00,mcc,38.79
2022-05-07T08:14:00,mcc,37.26
2022-05-07T08:15:00,mcc,40.33
2022-05-07T08:16:00,mcc,37.85
2022-05-07T08:17:00,mcc,44.83
2022-05-07T08:18:00,mcc,47.83
2022-05-07T08:19:00,mcc,43.75
2022-05-07T08:20:00,mcc,45.18
2022-05-07T08:21:00,mcc,41.09
2022-05-07T08:22:00,mcc,39.58
2022-05-07T08:23:00,mcc,38.74
2022-05-07T08:24:00,mcc,39.28
2022-05-07T08:25:00,mcc,39.13
2022-05-07T08:26:00,mcc,38.57
2022-05-07T08:27:00,mcc,45.09
2022-05-07T08:28:00,mcc,36.49
2022-05-07T08:29:00,mcc,42.47
2022-05-07T08:30:00,mcc,41.29
2022-05-07T08:31:00,mcc,41.32
2022-05-07T08:32:00,mcc,36.75
2022-05-07T08:33:00,mcc,37.46
2022-05-07T08:34:00,mcc,37.21
2022-05-07T08:35:00,mcc,38.28
2022-05-07T08:36:00,mcc,37.84
2022-05-07T08:37:00,mcc,37.67
2022-05-07T08:38:00,mcc,39.97
2022-05-07T08:39:00,mcc,39.96
2022-05-07T08:40:00,mcc,38.85
2022-05-07T08:41:00,mcc,43.67
2022-05-07T08:42:00,mcc,40.02
2022-05-07T08:43:00,mcc,40.87
2022-05-07T08:44:00,mcc,39.82
2022-05-07T08:45:00,mcc,41.08
2022-05-07T08:46:00,mcc,40.96
2022-05-07T08:47:00,mcc,37.29
2022-05-07T08:48:00,mcc,44.34
2022-05-07T08:49:00,mcc,38.56
2022-05-07T08:50:00,mcc,37.61
2022-05-07T08:51:00,mcc,39.73
2022-05-07T08:52:00,mcc,40.86
2022-05-07T08:53:00,mcc,37.73
2022-05-07T08:54:00,mcc,38.39
2022-05-07T08:55:00,mcc,39.77
2022-05-07T08:56:00,mcc,38.27
2022-05-07T08:57:00,mcc,39.25
2022-05-07T08:58:00,mcc,38.39
2022-05-07T08:59:00,mcc,37.25
2022-05-07T09:00:00,mcc,36.59
2022-05-07T09:01:00,mcc,35.76
2022-05-07T09:02:00,mcc,36.94
2022-05-07T09:03:00,mcc,38.86
2022-05-07T09:04:00,mcc,39.70
2022-05-07T09:05:00,mcc,40.55
2022-05-07T09:06:00,mcc,42.40
2022-05-07T09:07:00,mcc,47.52
2022-05-07T09:08:00,mcc,39.39
2022-05-07T09:09:00,mcc,40.62
2022-05-07T09:10:00,mcc,39.69
2022-05-07T09:11:00,mcc,40.31
2022-05-07T09:12:00,mcc,40.75
2022-05-07T09:13:00,mcc,36.76
2022-05-07T09:14:00,mcc,36.59
2022-05-07T09:15:00,mcc,39.25
2022-05-07T09:16:00,mcc,37.71
2022-05-07T09:17:00,mcc,39.09
2022-05-07T09:18:00,mcc,39.83
2022-05-07T09:19:00,mcc,40.14
2022-05-07T09:20:00,mcc,39.30
2022-05-07T09:21:00,mcc,39.07
2022-05-07T09:22:00,mcc,38.14
2022-05-07T09:23:00,mcc,39.53
2022-05-07T09:24:00,mcc,40.94
2022-05-07T09:25:00,mcc,40.66
2022-05-07T09:26:00,mcc,41.89
2022-05-07T09:27:00,mcc,38.73
2022-05-07T09:28:00,mcc,35.84
2022-05-07T09:29:00,mcc,41.04
2022-05-07T09:30:00,mcc,39.36
2022-05-07T09:31:00,mcc,42.64
2022-05-07T09:32:00,mcc,41.14
2022-05-07T09:33:00,mcc,41.50
2022-05-07T09:34:00,mcc,42.23
2022-05-07T09:35:00,mcc,47.76
2022-05-07T09:36:00,mcc,39.84
2022-05-07T09:37:00,mcc,41.31
2022-05-07T09:38:00,mcc,38.25
2022-05-07T09:39:00,mcc,40.14
2022-05-07T09:40:00,mcc,41.52
2022-05-07T09:41:00,mcc,38.89
2022-05-07T09:42:00,mcc,39.10
2022-05-07T09:43:00,mcc,40.91
2022-05-07T09:44:00,mcc,37.98
2022-05-07T09:45:00,mcc,38.27
2022-05-07T09:46:00,mcc,40.53
2022-05-07T09:47:00,mcc,50.89
2022-05-07T09:48:00,mcc,49.61
2022-05-07T09:49:00,mcc,53.34
2022-05-07T09:50:00,mcc,50.35
2022-05-07T09:51:00,mcc,39.79
2022-05-07T09:52:00,mcc,41.52
2022-05-07T09:53:00,mcc,38.63
2022-05-07T09:54:00,mcc,37.33
2022-05-07T09:55:00,mcc,39.05
2022-05-07T09:56:00,mcc,39.68
2022-05-07T09:57:00,mcc,39.41
2022-05-07T09:58:00,mcc,39.51
2022-05-07T09:59:00,mcc,40.63
2022-05-07T10:00:00,mcc,40.39
2022-05-07T10:01:00,mcc,37.97
2022-05-07T10:02:00,mcc,40.73
2022-05-07T10:03:00,mcc,42.46
2022-05-07T10:04:00,mcc,40.93
2022-05-07T10:05:00,mcc,40.91
2022-05-07T10:06:00,mcc,40.09
2022-05-07T10:07:00,mcc,50.12
2022-05-07T10:08:00,mcc,39.53
2022-05-07T10:09:00,mcc,41.20
2022-05-07T10:10:00,mcc,39.98
2022-05-07T10:11:00,mcc,40.74
2022-05-07T10:12:00,mcc,45.69
2022-05-07T10:13:00,mcc,40.13
2022-05-07T10:14:00,mcc,36.64
2022-05-07T10:15:00,mcc,38.87
2022-05-07T10:16:00,mcc,38.39
2022-05-07T10:17:00,mcc,40.08
2022-05-07T10:18:00,mcc,37.70
2022-05-07T10:19:00,mcc,40.02
2022-05-07T10:20:00,mcc,40.65
2022-05-07T10:21:00,mcc,38.41
2022-05-07T10:22:00,mcc,38.19
2022-05-07T10:23:00,mcc,38.77
2022-05-07T10:24:00,mcc,39.65
2022-05-07T10:25:00,mcc,39.38
2022-05-07T10:26:00,mcc,42.72
2022-05-07T10:27:00,mcc,41.52
2022-05-07T10:28:00,mcc,37.84
2022-05-07T10:29:00,mcc,43.22
2022-05-07T10:30:00,mcc,40.70
2022-05-07T10:31:00,mcc,42.51
2022-05-07T10:32:00,mcc,40.25
2022-05-07T10:33:00,mcc,39.25
2022-05-07T10:34:00,mcc,45.56
2022-05-07T10:35:00,mcc,39.71
2022-05-07T10:36:00,mcc,41.68
2022-05-07T10:37:00,mcc,40.54
2022-05-07T10:38:00,mcc,38.48
2022-05-07T10:39:00,mcc,38.08
2022-05-07T10:40:00,mcc,38.29
2022-05-07T10:41:00,mcc,36.40
2022-05-07T10:42:00,mcc,39.09
2022-05-07T10:43:00,mcc,42.59
2022-05-07T10:44:00,mcc,40.72
2022-05-07T10:45:00,mcc,39.36
2022-05-07T10:46:00,mcc,38.59
2022-05-07T10:47:00,mcc,36.91
2022-05-07T10:48:00,mcc,37.21
2022-05-07T10:49:00,mcc,43.31
2022-05-07T10:50:00,mcc,39.59
2022-05-07T10:51:00,mcc,44.19
2022-05-07T10:52:00,mcc,41.56
2022-05-07T10:53:00,mcc,43.20
2022-05-07T10:54:00,mcc,41.68
2022-05-07T10:55:00,mcc,40.71
2022-05-07T10:56:00,mcc,39.68
2022-05-07T10:57:00,mcc,40.27
2022-05-07T10:58:00,mcc,42.72
2022-05-07T10:59:00,mcc,39.55
2022-05-07T11:00:00,mcc,40.57
2022-05-07T11:01:00,mcc,38.61
2022-05-07T11:02:00,mcc,37.51
2022-05-07T11:03:00,mcc,39.84
2022-05-07T11:04:00,mcc,37.87
2022-05-07T11:05:00,mcc,37.98
2022-05-07T11:06:00,mcc,38.71
2022-05-07T11:07:00,mcc,37.01
2022-05-07T11:08:00,mcc,37.96
2022-05-07T11:09:00,mcc,61.16
2022-05-07T11:10:00,mcc,39.30
2022-05-07T11:11:00,mcc,47.55
2022-05-07T11:12:00,mcc,39.18
2022-05-07T11:13:00,mcc,37.72
2022-05-07T11:14:00,mcc,39.39
2022-05-07T11:15:00,mcc,39.07
2022-05-07T11:16:00,mcc,39.28
2022-05-07T11:17:00,mcc,39.68
2022-05-07T11:18:00,mcc,40.47
2022-05-07T11:19:00,mcc,41.33
2022-05-07T11:20:00,mcc,39.98
2022-05-07T11:21:00,mcc,38.98
2022-05-07T11:22:00,mcc,37.62
2022-05-07T11:23:00,mcc,39.87
2022-05-07T11:24:00,mcc,39.07
2022-05-07T11:25:00,mcc,37.46
2022-05-07T11:26:00,mcc,39.43
2022-05-07T11:27:00,mcc,36.29
2022-05-07T11:28:00,mcc,35.21
2022-05-07T11:29:00,mcc,38.82
2022-05-07T11:30:00,mcc,36.69
2022-05-07T11:31:00,mcc,38.89
2022-05-07T11:32:00,mcc,39.80
2022-05-07T11:33:00,mcc,39.14
2022-05-07T11:34:00,mcc,38.43
2022-05-07T11:35:00,mcc,41.20
2022-05-07T11:36:00,mcc,39.61
2022-05-07T11:37:00,mcc,39.76
2022-05-07T11:38:00,mcc,41.12
2022-05-07T11:39:00,mcc,40.36
2022-05-07T11:40:00,mcc,39.19
2022-05-07T11:41:00,mcc,41.28
2022-05-07T11:42:00,mcc,37.79
2022-05-07T11:43:00,mcc,37.84
2022-05-07T11:44:00,mcc,47.82
2022-05-07T11:45:00,mcc,40.11
2022-05-07T11:46:00,mcc,38.75
2022-05-07T11:47:00,mcc,38.71
2022-05-07T11:48:00,mcc,45.33
2022-05-07T11:49:00,mcc,37.63
2022-05-07T11:50:00,mcc,40.22
2022-05-07T11:51:00,mcc,38.88
2022-05-07T11:52:00,mcc,40.73
2022-05-07T11:53:00,mcc,39.96
2022-05-07T11:54:00,mcc,39.27
2022-05-07T11:55:00,mcc,41.91
2022-05-07T11:56:00,mcc,43.29
2022-05-07T11:57:00,mcc,41.14
2022-05-07T11:58:00,mcc,44.41
2022-05-07T11:59:00,mcc,44.03
2022-05-07T12:00:00,mcc,47.54
2022-05-07T12:01:00,mcc,50.05
2022-05-07T12:02:00,mcc,48.06
2022-05-07T12:03:00,mcc,45.58
2022-05-07T12:04:00,mcc,42.35
2022-05-07T12:05:00,mcc,42.36
2022-05-07T12:06:00,mcc,43.57
2022-05-07T12:07:00,mcc,42.35
2022-05-07T12:08:00,mcc,45.11
2022-05-07T12:09:00,mcc,46.12
2022-05-07T12:10:00,mcc,44.07
2022-05-07T12:11:00,mcc,45.50
2022-05-07T12:12:00,mcc,47.72
2022-05-07T12:13:00,mcc,43.14
2022-05-07T12:14:00,mcc,42.38
2022-05-07T12:15:00,mcc,42.97
2022-05-07T12:16:00,mcc,49.23
2022-05-07T12:17:00,mcc,43.41
2022-05-07T12:18:00,mcc,44.63
2022-05-07T12:19:00,mcc,43.24
2022-05-07T12:20:00,mcc,44.88
2022-05-07T12:21:00,mcc,43.66
2022-05-07T12:22:00,mcc,43.29
2022-05-07T12:23:00,mcc,43.79
2022-05-07T12:24:00,mcc,46.17
2022-05-07T12:25:00,mcc,45.52
2022-05-07T12:26:00,mcc,44.78
2022-05-07T12:27:00,mcc,46.51
2022-05-07T12:28:00,mcc,45.97
2022-05-07T12:29:00,mcc,42.22
2022-05-07T12:30:00,mcc,41.97
2022-05-07T12:31:00,mcc,42.93
2022-05-07T12:32:00,mcc,42.47
2022-05-07T12:33:00,mcc,52.34
2022-05-07T12:34:00,mcc,42.41
2022-05-07T12:35:00,mcc,43.68
2022-05-07T12:36:00,mcc,44.62
2022-05-07T12:37:00,mcc,45.21
2022-05-07T12:38:00,mcc,46.89
2022-05-07T12:39:00,mcc,45.78
2022-05-07T12:40:00,mcc,45.58
2022-05-07T12:41:00,mcc,45.24
2022-05-07T12:42:00,mcc,45.14
2022-05-07T12:43:00,mcc,44.80
2022-05-07T12:44:00,mcc,44.26
2022-05-07T12:45:00,mcc,43.52
2022-05-07T12:46:00,mcc,42.22
2022-05-07T12:47:00,mcc,46.30
2022-05-07T12:48:00,mcc,42.10
2022-05-07T12:49:00,mcc,42.59
2022-05-07T12:50:00,mcc,45.36
2022-05-07T12:51:00,mcc,43.26
2022-05-07T12:52:00,mcc,50.56
2022-05-07T12:53:00,mcc,44.45
2022-05-07T12:54:00,mcc,41.68
2022-05-07T12:55:00,mcc,39.76
2022-05-07T12:56:00,mcc,43.37
2022-05-07T12:57:00,mcc,40.88
2022-05-07T12:58:00,mcc,41.59
2022-05-07T12:59:00,mcc,44.30
2022-05-07T13:00:00,mcc,42.84
2022-05-07T13:01:00,mcc,41.79
2022-05-07T13:02:00,mcc,41.96
2022-05-07T13:03:00,mcc,41.61
2022-05-07T13:04:00,mcc,40.05
2022-05-07T13:05:00,mcc,40.95
2022-05-07T13:06:00,mcc,40.32
2022-05-07T13:07:00,mcc,43.20
2022-05-07T13:08:00,mcc,45.03
2022-05-07T13:09:00,mcc,44.45
2022-05-07T13:10:00,mcc,43.80
2022-05-07T13:11:00,mcc,53.74
2022-05-07T13:12:00,mcc,45.41
2022-05-07T13:13:00,mcc,44.73
2022-05-07T13:14:00,mcc,42.68
2022-05-07T13:15:00,mcc,41.67
2022-05-07T13:16:00,mcc,44.14
2022-05-07T13:17:00,mcc,42.40
2022-05-07T13:18:00,mcc,40.75